EGGW

London Luton Airport

Airport
ICAO code
EGGW
IATA Code
LTN
Summary
ICAO Region
EUR
ICAO Territory
Location

Luton, Bedfordshire,

Serving
Luton
Elevation
526 ft
Coordinates
51° 52' 31" N , 0° 22' 10" W
KCC
Metar
EGGW 150020Z AUTO 24014KT 9999 NCD 07/04 Q1014

Description

International airport with scheduled and business traffic.

Climatology

Temperate Marine climate/Oceanic climate (Köppen climate classification Cfb). Moderately cool summer and comparatively warm winter with a temperature range of only 14°C. Prevailing south-westerly winds.

Runways

Designator Length Width Surface Rops
8/26 2160 46 ASP Yes/Yes

Airport map

Aerial View

SKYbrary Partners:

Safety knowledge contributed by: